Regional Weather Roundup
Issued by NWS

Home | Current Version | Previous Version | Graphics & Text | Print | Product List | Glossary On
Versions: 1 2 3 4 5 6 7 8 9 10 11 12 13 14 15 16 17 18 19 20 21 22 23 24 25 26 27 28 29 30 31 32 33 34 35 36 37 38 39 40 41 42 43 44 45 46 47 48 49 50
560
ASUS43 KDTX 291210
RWRMI
MICHIGAN HOURLY REGIONAL WEATHER ROUNDUP
NATIONAL WEATHER SERVICE DETROIT/PONTIAC MI
800 AM EDT FRI APR 29 2016

NOTE: "FAIR" INDICATES FEW OR NO CLOUDS BELOW 12,000 FEET WITH NO
SIGNIFICANT WEATHER AND/OR OBSTRUCTION TO VISIBILITY.

MIZ047>049-052>055-059>063-066>070-074>076-081>083-291300-
SOUTHEAST LOWER MICHIGAN

CITY           SKY/WX    TMP DP  RH WIND       PRES   REMARKS
ADRIAN         CLOUDY    46  34  62 NE9       30.02S
6HR MIN TEMP:  45; 6HR MAX TEMP:  46;

ALMA           LGT RAIN  37  35  89 N5        30.09R WCI  34
ANN ARBOR      CLOUDY    44  30  57 NE8       30.03R
BAD AXE        CLOUDY    42  32  69 CALM      30.09R
CARO           CLOUDY    42  35  74 CALM      30.07R
DETROIT CITY   LGT RAIN  41  36  82 N5        30.05R
6HR MIN TEMP:  41; 6HR MAX TEMP:  45; 6HR PCP:  0.04;

DETROIT        CLOUDY    43  33  68 N6        30.04S
6HR MIN TEMP:  43; 6HR MAX TEMP:  47;

FLINT          CLOUDY    46  34  62 N5        30.07R
6HR MIN TEMP:  44; 6HR MAX TEMP:  46;

GROSSE ILE     CLOUDY    43  36  75 N7        30.02S
HILLSDALE      CLOUDY    44  33  64 CALM      30.02R
6HR MIN TEMP:  44; 6HR MAX TEMP:  45;

HOWELL         MIX PCPN  42  33  70 NE6       30.04R
6HR MIN TEMP:  42; 6HR MAX TEMP:  44;


CITY           SKY/WX    TMP DP  RH WIND       PRES   REMARKS
JACKSON        CLOUDY    43  35  73 NE7       30.02S
6HR MIN TEMP:  43; 6HR MAX TEMP:  45;

LAMBERTVILLE   CLOUDY    46  33  59 NE7       30.03R
6HR MIN TEMP:  46; 6HR MAX TEMP:  48;

LANSING        CLOUDY    40  35  83 N6        30.06R
6HR MIN TEMP:  40; 6HR MAX TEMP:  42; 6HR PCP:  0.02;

LAPEER         CLOUDY    42  33  72 CALM      30.05F
6HR MIN TEMP:  41; 6HR MAX TEMP:  42;

MASON          CLOUDY    41  37  84 N3        30.05R
MONROE         CLOUDY    45  35  69 N6        30.02S
6HR MIN TEMP:  44; 6HR MAX TEMP:  46;

MT. CLEMENS    LGT RAIN  43  35  74 N5        30.04R
6HR MIN TEMP:  42; 6HR MAX TEMP:  44; 6HR PCP:  0.02;

PONTIAC        CLOUDY    43  32  65 NE6       30.02F
6HR MIN TEMP:  43; 6HR MAX TEMP:  44;

PORT HOPE        N/A     41  36  82 SE6       30.08R
6HR MIN TEMP:  40; 6HR MAX TEMP:  42;

PORT HURON     CLOUDY    41  36  81 CALM      30.06R
TRI CITIES     CLOUDY    43  36  76 N7        30.09R
6HR MIN TEMP:  41; 6HR MAX TEMP:  44;

MIDLAND        CLOUDY    40  32  73 NW3       30.09R
6HR MIN TEMP:  39; 6HR MAX TEMP:  40;

TROY           RAIN      43  33  68 NE7       30.06S
SAGINAW HB     CLOUDY    43  36  75 CALM      30.07R
$$
MIZ043>046-050>051-056>058-064>065-071>073-077>080-291300-
SOUTHWEST LOWER MICHIGAN

CITY           SKY/WX    TMP DP  RH WIND       PRES   REMARKS
BATTLE CREEK   CLOUDY    44  35  70 N3        30.05R
6HR MIN TEMP:  43; 6HR MAX TEMP:  44;

BENTON HARBOR  CLOUDY    46  42  86 CALM      30.04R
6HR MIN TEMP:  45; 6HR MAX TEMP:  48; 6HR PCP:  0.01;

BIG RAPIDS     LGT RAIN  37  33  87 CALM      30.08S
6HR MIN TEMP:  35; 6HR MAX TEMP:  40; 6HR PCP:  0.04;

COLDWATER      CLOUDY    46  37  73 CALM      30.03R
6HR MIN TEMP:  45; 6HR MAX TEMP:  46;

FREMONT        RAIN      38  36  95 NE3       30.08R
HOLLAND        CLOUDY    42  37  82 E6        30.06R
6HR MIN TEMP:  42; 6HR MAX TEMP:  43; 6HR PCP: TRACE;

GRAND RAPIDS   CLOUDY    41  36  82 NE7       30.06R
6HR MIN TEMP:  41; 6HR MAX TEMP:  42; 6HR PCP: TRACE;

IONIA          DRIZZLE   38  36  92 N7        30.06R WCI  33
6HR MIN TEMP:  38; 6HR MAX TEMP:  40; 6HR PCP:  0.03;

KALAMAZOO      CLOUDY    45  38  76 CALM      30.05R
6HR MIN TEMP:  44; 6HR MAX TEMP:  47; 6HR PCP: TRACE;

LUDINGTON      LGT RAIN  36  36  99 CALM      30.11R
6HR MIN TEMP:  36; 6HR MAX TEMP:  42; 6HR PCP:  0.15;

MARSHALL       CLOUDY    43  35  71 CALM      30.04R
6HR MIN TEMP:  43; 6HR MAX TEMP:  45;

MOUNT PLEASANT CLOUDY    39  32  75 CALM      30.08S
6HR MIN TEMP:  38; 6HR MAX TEMP:  39;

MUSKEGON       CLOUDY    41  35  79 NE8       30.08R
6HR MIN TEMP:  41; 6HR MAX TEMP:  43; 6HR PCP: TRACE;

SOUTH HAVEN    CLOUDY    42  42  98 NE6       30.05R FOG
$$
MIZ016>042-291300-
NORTHERN LOWER MICHIGAN

CITY           SKY/WX    TMP DP  RH WIND       PRES   REMARKS
ALPENA         CLOUDY    40  32  73 N5        30.13R
6HR MIN TEMP:  32; 6HR MAX TEMP:  40;

BEAVER ISLAND  CLOUDY    38  31  73 NE3       30.15R
6HR MIN TEMP:  33; 6HR MAX TEMP:  39;

BELLAIRE       CLOUDY    42  24  48 CALM      30.13R
6HR MIN TEMP:  42; 6HR MAX TEMP:  45;

CADILLAC       CLOUDY    38  26  62 N5        30.07S WCI  35
CHARLEVOIX     CLOUDY    40  27  60 NE5       30.16R
FRANKFORT      CLOUDY    43  36  74 NE5       30.10S
GAYLORD        CLOUDY    38  26  62 NE7       30.10R WCI  33
6HR MIN TEMP:  38; 6HR MAX TEMP:  41;

GRAYLING       CLOUDY    40  28  62 NE6       30.11R
6HR MIN TEMP:  39; 6HR MAX TEMP:  40;

HARBOR SPRINGS CLOUDY    40  27  60 NE6       30.14R
HOUGHTON LAKE  CLOUDY    39  28  64 NE6       30.09R WCI  35
6HR MIN TEMP:  38; 6HR MAX TEMP:  40;

MANISTEE       CLOUDY    43  28  56 E3        30.11R
OSCODA         CLOUDY    42  34  74 NE7       30.10R
6HR MIN TEMP:  41; 6HR MAX TEMP:  42;

PELLSTON       CLOUDY    35  30  82 CALM      30.15R
6HR MIN TEMP:  28; 6HR MAX TEMP:  35;

ROGERS CITY    CLOUDY    37  33  84 CALM      30.15R
TRAVERSE CITY  CLOUDY    43  34  70 NE3       30.11R
6HR MIN TEMP:  42; 6HR MAX TEMP:  44;

$$
MIZ007>008-015-291300-
EASTERN UPPER MICHIGAN

CITY           SKY/WX    TMP DP  RH WIND       PRES   REMARKS
KINROSS          N/A     39  30  70 E6        30.15R WCI  35
6HR MIN TEMP:  34; 6HR MAX TEMP:  39;

MACKINAC ISLAN MOSUNNY   39  32  76 E8        30.15R WCI  33
6HR MIN TEMP:  34; 6HR MAX TEMP:  39;

NEWBERRY       MOSUNNY   36  33  89 CALM      30.14S
6HR MIN TEMP:  33; 6HR MAX TEMP:  36;

S. S. MARIE    MOSUNNY   39  28  64 E5        30.15R
6HR MIN TEMP:  36; 6HR MAX TEMP:  39;

MUNISING         N/A     37  34  89 CALM      30.15R
6HR MIN TEMP:  33; 6HR MAX TEMP:  37;

$$
MIZ004>006-011>014-085-291300-
CENTRAL UPPER MICHIGAN

CITY           SKY/WX    TMP DP  RH WIND       PRES   REMARKS
MANISTIQUE     CLOUDY    38  32  80 N3        30.14R
6HR MIN TEMP:  34; 6HR MAX TEMP:  38;

ESCANABA       CLOUDY    39  30  70 N3        30.15R
6HR MIN TEMP:  39; 6HR MAX TEMP:  43;

MENOMINEE      CLOUDY    39  28  65 N5        30.13R
6HR MIN TEMP:  39; 6HR MAX TEMP:  43;

SAWYER-GWINN   CLOUDY    37  27  65 N5        30.16R WCI  34
$$
MIZ001>003-009>011-084-291300-
WESTERN UPPER MICHIGAN

CITY           SKY/WX    TMP DP  RH WIND       PRES   REMARKS
IRON MOUNTAIN  CLOUDY    39  27  62 NW6       30.12R WCI  35
6HR MIN TEMP:  36; 6HR MAX TEMP:  40;

HOUGHTON       CLOUDY    33  26  75 NW6       30.15R WCI  28
6HR MIN TEMP:  29; 6HR MAX TEMP:  34;

COPPER HARBOR    N/A     35  28  75 W5        30.15S WCI  31
6HR MIN TEMP:  31; 6HR MAX TEMP:  35;

IRONWOOD       SUNNY     30  28  93 SW3       30.14S
6HR MIN TEMP:  28; 6HR MAX TEMP:  34;

$$

ABBREVIATIONS USED IN REMARKS
   TC - TEMPERATURE IN CELSIUS
  WCI - WIND CHILL INDEX
   HX - HEAT INDEX
  VSB - VISIBILITY





USA.gov is the U.S. government's official web portal to all federal, state and local government web resources and services.